Location: Birkenwerder
(52.6919°N, 13.2774°E)
Time: 22:42:25
(UTC+00:00)

AQUA - Pass Details

Date: 07 June 2020
Orbit: 702 x 703 km, 98.2° (Epoch: 11 July)

Event Time Altitude Azimuth Distance (km) Brightness Sun altitude
Rises 01:06:15 0° 16° (NNE) 3,106 9.0 -10.1°
Reaches altitude 10° 01:08:32 10° 18° (NNE) 2,183 7.9 -9.9°
Maximum altitude 01:13:19 72° 103° (ESE) 745 4.0 -9.6°
Drops below altitude 10° 01:18:03 10° 188° (S) 2,166 5.8 -9.2°
Enters shadow 01:18:07 10° 188° (S) 2,191 5.8 -9.2°
